Weather History for Somerset, KY

Change the Weather History Date:

Sunday, October 14, 2012

  Actual Average Record
Temperature  
Mean Temperature 66 °F -  
Max Temperature 71 °F 70 °F 82 °F (2000)
Min Temperature 60 °F 45 °F 30 °F (2006)
Growing Degree Days 16 (Base 50)    
Moisture  
Dew Point 55 °F    
Average Humidity 69    
Maximum Humidity 88    
Minimum Humidity 57    
Precipitation  
Precipitation 0.00 in - - ()
Sea Level Pressure  
Sea Level Pressure 30.03 in    
Wind  
Wind Speed 11 mph (SSW)    
Max Wind Speed 18 mph    
Max Gust Speed 28 mph    
Visibility 10 miles    
Events Rain    
Averages and records for this station are not official NWS values.
T = Trace of Precipitation, MM = Missing Value Source: NWS Daily Summary

Daily Weather History Graph

Daily Weather History Graph

Search for Another Location

Airport:

Trip Planner

Search our weather history database for the weather conditions in past years. The results will help you decide how hot, cold, wet, or windy it might be!

Date:

Astronomy

Oct. 14, 2012 Rise Set
Actual Time 7:45 AM EDT 7:02 PM EDT
Civil Twilight 7:19 AM EDT 7:28 PM EDT
Nautical Twilight 6:49 AM EDT 7:58 PM EDT
Astronomical Twilight 6:19 AM EDT 8:28 PM EDT
Moon 6:44 AM EDT (10/14) 6:22 PM EDT (10/14)
Length of Visible Light 12h 08m
Length of Day
11h 16m
Waning Crescent, 1% of the Moon is Illuminated
Oct 14
Waning Crescent
Oct 15
New
Oct 21
First Quarter
Oct 29
Full
Nov 6
Last Quarter

Hourly Weather History & Observations

Time (EDT) Temp. Dew Point Humidity Pressure Visibility Wind Dir Wind Speed Gust Speed Precip Events Conditions
12:35 AM 64.4 °F 51.8 °F 64% 30.15 in 10.0 mi South 13.8 mph 19.6 mph N/A   Clear
1:15 AM 62.6 °F 51.8 °F 68% 30.14 in 10.0 mi South 11.5 mph 17.3 mph N/A   Clear
1:35 AM 62.6 °F 51.8 °F 68% 30.14 in 10.0 mi South 10.4 mph - N/A   Clear
1:55 AM 62.6 °F 51.8 °F 68% 30.13 in 10.0 mi SSW 9.2 mph 17.3 mph N/A   Clear
2:15 AM 62.6 °F 50.0 °F 63% 30.13 in 10.0 mi South 9.2 mph - N/A   Clear
2:35 AM 62.6 °F 50.0 °F 63% 30.12 in 10.0 mi South 9.2 mph - N/A   Clear
2:55 AM 62.6 °F 50.0 °F 63% 30.12 in 10.0 mi SSW 10.4 mph 19.6 mph N/A   Clear
3:15 AM 62.6 °F 50.0 °F 63% 30.11 in 10.0 mi South 6.9 mph - N/A   Clear
3:35 AM 62.6 °F 50.0 °F 63% 30.11 in 10.0 mi South 10.4 mph 18.4 mph N/A   Clear
3:55 AM 62.6 °F 50.0 °F 63% 30.11 in 10.0 mi SSW 10.4 mph - N/A   Scattered Clouds
4:15 AM 62.6 °F 50.0 °F 63% 30.11 in 10.0 mi SSW 10.4 mph - N/A   Mostly Cloudy
4:35 AM 62.6 °F 50.0 °F 63% 30.11 in 10.0 mi SSW 9.2 mph - N/A   Overcast
4:55 AM 62.6 °F 50.0 °F 63% 30.10 in 10.0 mi South 10.4 mph 16.1 mph N/A   Overcast
5:15 AM 62.6 °F 50.0 °F 63% 30.10 in 10.0 mi South 9.2 mph - N/A   Overcast
5:35 AM 62.6 °F 50.0 °F 63% 30.10 in 10.0 mi South 11.5 mph - N/A   Mostly Cloudy
5:55 AM 62.6 °F 50.0 °F 63% 30.10 in 10.0 mi South 13.8 mph 18.4 mph N/A   Scattered Clouds
6:15 AM 60.8 °F 50.0 °F 68% 30.10 in 10.0 mi South 12.7 mph 18.4 mph N/A   Clear
6:35 AM 60.8 °F 51.8 °F 72% 30.10 in 10.0 mi South 15.0 mph 20.7 mph N/A   Clear
7:15 AM 60.8 °F 51.8 °F 72% 30.10 in 10.0 mi SSW 12.7 mph 20.7 mph N/A   Scattered Clouds
7:35 AM 60.8 °F 51.8 °F 72% 30.11 in 10.0 mi SSW 10.4 mph 18.4 mph N/A   Clear
7:55 AM 60.8 °F 51.8 °F 72% 30.11 in 10.0 mi South 13.8 mph 21.9 mph N/A   Clear
8:15 AM 62.6 °F 51.8 °F 68% 30.12 in 10.0 mi SSW 9.2 mph 17.3 mph N/A   Mostly Cloudy
8:35 AM 62.6 °F 51.8 °F 68% 30.13 in 10.0 mi South 6.9 mph - N/A   Overcast
8:55 AM 62.6 °F 51.8 °F 68% 30.14 in 10.0 mi SSW 9.2 mph - N/A   Overcast
9:15 AM 62.6 °F 53.6 °F 72% 30.13 in 10.0 mi SSW 12.7 mph 23.0 mph N/A   Mostly Cloudy
9:35 AM 62.6 °F 53.6 °F 72% 30.12 in 10.0 mi SSW 12.7 mph 19.6 mph N/A   Scattered Clouds
9:55 AM 64.4 °F 53.6 °F 68% 30.12 in 10.0 mi South 12.7 mph 20.7 mph N/A   Clear
10:15 AM 64.4 °F 53.6 °F 68% 30.12 in 10.0 mi SSW 10.4 mph 16.1 mph N/A   Scattered Clouds
10:35 AM 66.2 °F 55.4 °F 68% 30.12 in 10.0 mi SSW 13.8 mph 19.6 mph N/A   Mostly Cloudy
10:55 AM 68.0 °F 55.4 °F 64% 30.10 in 10.0 mi South 13.8 mph 19.6 mph N/A   Mostly Cloudy
11:15 AM 68.0 °F 55.4 °F 64% 30.09 in 10.0 mi South 11.5 mph 17.3 mph N/A   Scattered Clouds
11:35 AM 68.0 °F 55.4 °F 64% 30.10 in 10.0 mi SSW 11.5 mph 17.3 mph N/A   Scattered Clouds
11:55 AM 68.0 °F 55.4 °F 64% 30.07 in 10.0 mi South 11.5 mph 19.6 mph N/A   Scattered Clouds
12:15 PM 69.8 °F 57.2 °F 64% 30.07 in 10.0 mi South 15.0 mph 21.9 mph N/A   Scattered Clouds
12:35 PM 69.8 °F 57.2 °F 64% 30.06 in 10.0 mi South 15.0 mph 20.7 mph N/A   Mostly Cloudy
12:55 PM 69.8 °F 55.4 °F 60% 30.05 in 10.0 mi SW 12.7 mph 25.3 mph N/A   Overcast
1:15 PM 71.6 °F 55.4 °F 57% 30.05 in 10.0 mi SSW 13.8 mph 25.3 mph N/A   Mostly Cloudy
1:35 PM 71.6 °F 55.4 °F 57% 30.02 in 10.0 mi SSW 11.5 mph 27.6 mph N/A   Mostly Cloudy
1:55 PM 71.6 °F 55.4 °F 57% 30.01 in 10.0 mi SSW 15.0 mph 25.3 mph N/A   Scattered Clouds
2:15 PM 71.6 °F 55.4 °F 57% 29.98 in 10.0 mi SSW 18.4 mph 26.5 mph N/A   Mostly Cloudy
2:35 PM 71.6 °F 55.4 °F 57% 29.97 in 10.0 mi South 17.3 mph 25.3 mph N/A   Scattered Clouds
2:55 PM 69.8 °F 55.4 °F 60% 29.96 in 10.0 mi South 10.4 mph 24.2 mph N/A   Scattered Clouds
3:15 PM 69.8 °F 55.4 °F 60% 29.96 in 10.0 mi South 12.7 mph 20.7 mph N/A   Scattered Clouds
3:35 PM 69.8 °F 57.2 °F 64% 29.96 in 10.0 mi South 9.2 mph 19.6 mph N/A   Clear
3:55 PM 69.8 °F 57.2 °F 64% 29.96 in 10.0 mi South 12.7 mph 18.4 mph N/A   Clear
4:15 PM 68.0 °F 55.4 °F 64% 29.95 in 10.0 mi South 10.4 mph 19.6 mph N/A   Scattered Clouds
4:35 PM 68.0 °F 57.2 °F 68% 29.95 in 10.0 mi SSW 12.7 mph 19.6 mph N/A Rain Rain
4:55 PM 68.0 °F 57.2 °F 68% 29.93 in 10.0 mi South 11.5 mph 18.4 mph N/A   Mostly Cloudy
5:15 PM 68.0 °F 57.2 °F 68% 29.93 in 10.0 mi South 10.4 mph - N/A   Mostly Cloudy
5:35 PM 68.0 °F 57.2 °F 68% 29.93 in 10.0 mi South 9.2 mph 17.3 mph N/A   Scattered Clouds
5:55 PM 68.0 °F 57.2 °F 68% 29.92 in 10.0 mi South 9.2 mph - N/A   Mostly Cloudy
6:15 PM 68.0 °F 57.2 °F 68% 29.92 in 10.0 mi SSW 10.4 mph 19.6 mph N/A   Overcast
6:35 PM 68.0 °F 57.2 °F 68% 29.92 in 10.0 mi SSW 6.9 mph 17.3 mph N/A   Overcast
6:55 PM 68.0 °F 57.2 °F 68% 29.91 in 10.0 mi SSW 10.4 mph 16.1 mph N/A   Overcast
7:15 PM 66.2 °F 59.0 °F 78% 29.91 in 10.0 mi SSW 10.4 mph 18.4 mph N/A Rain Rain
7:35 PM 68.0 °F 59.0 °F 73% 29.91 in 10.0 mi SSW 8.1 mph - N/A   Overcast
7:55 PM 66.2 °F 59.0 °F 78% 29.91 in 10.0 mi SSW 10.4 mph - N/A   Overcast
8:15 PM 66.2 °F 59.0 °F 78% 29.91 in 10.0 mi SSW 9.2 mph - N/A Rain Light Rain
8:35 PM 64.4 °F 60.8 °F 88% 29.91 in 10.0 mi SW 4.6 mph - N/A Rain Light Rain
8:55 PM 64.4 °F 60.8 °F 88% 29.91 in 10.0 mi SSW 6.9 mph - N/A   Overcast
9:15 PM 64.4 °F 60.8 °F 88% 29.90 in 10.0 mi South 5.8 mph - N/A   Overcast
9:35 PM 64.4 °F 60.8 °F 88% 29.90 in 10.0 mi SW 5.8 mph - N/A   Mostly Cloudy
9:55 PM 64.4 °F 60.8 °F 88% 29.91 in 10.0 mi SSW 4.6 mph - N/A   Mostly Cloudy
10:15 PM 64.4 °F 60.8 °F 88% 29.92 in 10.0 mi SW 5.8 mph - N/A   Overcast
10:35 PM 64.4 °F 60.8 °F 88% 29.93 in 10.0 mi WSW 9.2 mph - N/A   Overcast
10:55 PM 66.2 °F 60.8 °F 83% 29.92 in 10.0 mi SSW 8.1 mph - N/A   Overcast
11:15 PM 66.2 °F 60.8 °F 83% 29.91 in 10.0 mi SW 11.5 mph - N/A   Overcast
11:35 PM 64.4 °F 60.8 °F 88% 29.91 in 10.0 mi SW 9.2 mph - N/A Rain Rain
11:55 PM 64.4 °F 60.8 °F 88% 29.90 in 10.0 mi WSW 12.7 mph - N/A   Overcast